Regional Weather Roundup
Issued by NWS Wilmington, NC

Home | Current Version | Previous Version | Text Only | Print | Product List | Glossary On
Versions: 1 2 3 4 5 6 7 8 9 10 11 12 13 14 15 16 17 18 19 20 21 22 23 24 25 26 27 28 29 30 31 32 33 34 35 36 37 38 39 40 41 42 43 44 45 46 47 48 49 50
000
ASUS42 KILM 280513
RWRILM
RWRILM
REGIONAL HOURLY WEATHER ROUNDUP
NATIONAL WEATHER SERVICE WILMINGTON NC
100 AM EDT THU MAY 28 2015

NOTE: "FAIR" INDICATES FEW OR NO CLOUDS BELOW 12,000 FEET WITH NO
SIGNIFICANT WEATHER AND/OR OBSTRUCTIONS TO VISIBILITY.

...............WFO WILMINGTON COUNTY WARNING AREA...............

......COASTAL NC AND SC COUNTIES......

CITY           SKY/WX    TMP DP  RH WIND       PRES   REMARKS
WILMINGTON     PTCLDY    72  64  76 S5        30.23S
N MYRTLE BEACH MOCLDY    75  67  76 S3        30.23R
MYRTLE BEACH   PTCLDY    75  66  73 S7        30.25R

......INLAND NC AND SC COUNTIES.......

CITY           SKY/WX    TMP DP  RH WIND       PRES   REMARKS
LUMBERTON      MOCLDY    70  67  90 CALM      30.23S
ELIZABETHTOWN  MOCLDY    70  68  92 CALM      30.23F
WHITEVILLE     PTCLDY    68  66  92 CALM      30.23S
FLORENCE       CLOUDY    72  69  90 CALM      30.23S
DARLINGTON     PTCLDY    72  66  83 CALM      30.24S

....................REST OF NORTH CAROLINA......................

.........EASTERN NC.........

CITY           SKY/WX    TMP DP  RH WIND       PRES   REMARKS
CAPE HATTERAS  CLEAR     71  61  70 SW7       30.25F
JACKSONVILLE   PTCLDY    66  63  88 CALM      30.24F
MOREHEAD CITY  CLEAR     70  63  78 S3        30.24F
KENANSVILLE    MOCLDY    69  66  91 CALM      30.25S
NEW BERN       PTCLDY    66  63  90 CALM      30.25F
ELIZABETH CITY PTCLDY    70  65  84 S8        30.22F

.........CENTRAL NC.........

CITY           SKY/WX    TMP DP  RH WIND       PRES   REMARKS
RALEIGH DURHAM PTCLDY    69  66  90 SW7       30.23S
ROCKY MOUNT    MOCLDY    71  69  93 S6        30.23S
ROANOKE RAPIDS NOT AVBL
FAYETTEVILLE   MOCLDY    71  67  87 S5        30.23S
HOFFMAN        PTCLDY    69  67  94 SE1       30.26S

.........WESTERN NC.........

CITY           SKY/WX    TMP DP  RH WIND       PRES   REMARKS
CHARLOTTE      MOCLDY    71  67  87 S5        30.23S
GREENSBORO     MOCLDY    71  68  90 S7        30.22S
HICKORY        NOT AVBL
BOONE          NOT AVBL
ASHEVILLE      NOT AVBL

.....................REST OF SOUTH CAROLINA.....................

.........EASTERN SC.........

CITY           SKY/WX    TMP DP  RH WIND       PRES   REMARKS
CHARLESTON     PTCLDY    71  67  87 N3        30.21F
BEAUFORT MCAS  PTCLDY    71  67  87 CALM      30.21S
HILTON HEAD    PTCLDY    72  68  88 CALM      30.21F

.........CENTRAL SC.........

CITY           SKY/WX    TMP DP  RH WIND       PRES   REMARKS
COLUMBIA       PTCLDY    71  67  87 E3        30.21F
ORANGEBURG     CLEAR     69  66  90 CALM      30.22S
SUMTER SHAW    MOCLDY    71  69  92 S2        30.20F

.........WESTERN SC.........

CITY           SKY/WX    TMP DP  RH WIND       PRES   REMARKS
GREENVILLE     NOT AVBL
ROCK HILL      MOCLDY    71  69  93 S6        30.23S
ANDERSON       PTCLDY    67  65  93 CALM      30.21F
CLEMSON        NOT AVBL
GREENWOOD      MOCLDY    71  67  87 SW6       30.23F


...................COASTAL AND OFFSHORE REPORTS..................

................LOCAL PIERS AND NC RESERVE................


STATION/POSITION TIME  SKY/WX   TEMP    WIND        PRES    VSBY
                                AIR SEA DIR/SP/G
                 (UTC)          (F)     (DEG/KT/KT) (MB)    (MI)
JOHNY MRCER PIER 0400            75 78  180/  9/ 11 1023.4F
NC RESRV MASNBRO NOT AVBL
OCEAN CREST PIER 0502            75 79  120/  8/ 11 1022.9F
SPRINGMAID  PIER 0400            75 78  130/ 11/ 12 1023.5F


................COASTAL AND OFFSHORE BUOYS................


STATION/POSITION TIME  SKY/WX   TEMP    WIND        PRES    VSBY
                                AIR SEA DIR/SP/G
                 (UTC)          (F)     (DEG/KT/KT) (MB)    (MI)
DIMNDSHOAL 41025 0450            74 77  200/  8/ 10 1024.5F
WVE H/P(F/S)=  3/ 8 WND WVE H/P(F/S)=  2/ 4 SWL H/P/D(F/S/D)=  2/140/ 8

CAPE LOOKOUT     0500            73     170/  4/  5 1023.8F
ONSLOW BAY 41036 NOT AVBL
5 WRITEBCH 41038 0408            75 77  180/  8/ 12 1023.8F
MASONBORO  41110 0419               77                N/A
WVE H/P(F/S)=  3/ 7 WND WVE H/P(F/S)=  3/ 7

WILM HARBR 41108 0411               77                N/A
WVE H/P(F/S)=  3/ 6 WND WVE H/P(F/S)=  3/ 6

27WRITEBCH 41037 0400               76  220/  6/  8   N/A
FRYING PAN 41013 0450            76 75  190/  6/  8 1024.6S
WVE H/P(F/S)=  3/ 7 WND WVE H/P(F/S)=  2/ 4 SWL H/P/D(F/S/D)=  3/130/ 7

SUNST NRSH 41024 0408            74     170/ 10/ 12 1023.7F
CAPRS NRSH 41029 0408            77     140/  8/ 10 1023.4R
EDISTO     41004 0450            77 78  110/  6/  8 1022.7F
WVE H/P(F/S)=  3/ 8 WND WVE H/P(F/S)=  2/ 4 SWL H/P/D(F/S/D)=  3/ 8



..........OFFSHORE BUOYS BEYOND 100 NM OFFSHORE...........
.....IN A TRIANGLE---HAT TO BERMUDA TO BAHAMAS TO HAT.....


STATION/POSITION TIME  SKY/WX   TEMP    WIND        PRES    VSBY
                                AIR SEA DIR/SP/G
                 (UTC)          (F)     (DEG/KT/KT) (MB)    (MI)
150E HAT   41001 NOT AVBL
W BERMUDA  41048 0450            73 74   80/ 16/ 17 1021.5F
WVE H/P(F/S)=  9/ 8 WND WVE H/P(F/S)=  5/ 7 SWL H/P/D(F/S/D)=  7/ 70/ 8

ATLANTIC S 41049 0450            76 78  110/ 10/ 12 1016.5F
WVE H/P(F/S)=  6/ 9 WND WVE H/P(F/S)=  2/ 4 SWL H/P/D(F/S/D)=  5/ 40/ 9

E BAHAMAS  41046 0450            76 81   20/  6/  8 1015.4F
WVE H/P(F/S)=  6/ 9 WND WVE H/P(F/S)=  2/ 3 SWL H/P/D(F/S/D)=  5/ 70/ 9

NE BAHAMAS 41047 0450            75 77   30/ 17/ 19 1017.6F
WVE H/P(F/S)=  8/ 8 WND WVE H/P(F/S)=  5/ 7 SWL H/P/D(F/S/D)=  5/ 70/ 8

120E CANVRL41010 0420            77 80   80/ 12/ 16 1021.7F

END


USA.gov is the U.S. government's official web portal to all federal, state and local government web resources and services.